User: anonymous   Login
Location: Unspecified
(0.0000°N, 0.0000°E)
Time: 20:13:55
(UTC+00:00)
Language:

TBA - TO BE ASSIGNED - Orbit

View from above orbital plane
View from above orbital plane
View from above satellite
View from above satellite

Ground track
Ground track

The orbit is defined by the following mean orbital elements,

1 68350U          26145.38683104 +.00000000 +00000-0 +76591-4 0 00008
2 68350  54.9795 129.1423 0010637  57.9923 302.2108 14.72821798    02
Epoch (UTC): 25 May 2026 09:17:02
Eccentricity: 0.0010637
inclination: 54.9795°
perigee height: 645 km
apogee height: 660 km
right ascension of ascending node: 129.1423°
argument of perigee: 57.9923°
revolutions per day: 14.72821798
mean anomaly at epoch: 302.2108°

The dashed part of the orbit path shows where the satellite is in the earth's shadow,  

DLR